York, PA

3:25 PM EST on December 05, 2019 (GMT -0500)
York

Weather History for KTHV - October, 2019

Change the Weather History Date:

Thursday, October 24, 2019

  Actual Average Record
Temperature  
Mean Temperature 50 °F -  
Max Temperature 68 °F 0 °F 82 °F (2001)
Min Temperature 33 °F - 26 °F (1997)
Degree Days  
Heating Degree Days 14    
Moisture  
Dew Point 35 °F    
Average Humidity 65    
Maximum Humidity 92    
Minimum Humidity 28    
Precipitation  
Precipitation 0.00 in - - ()
Sea Level Pressure  
Sea Level Pressure 30.30 in    
Wind  
Wind Speed 1 mph ()    
Max Wind Speed 8 mph    
Max Gust Speed -    
Visibility 10.0 miles    
Events      
Averages and records for this station are not official NWS values.
T = Trace of Precipitation, MM = Missing Value Source: Averaged Metar Reports

Daily Weather History Graph

Daily Weather History Graph

Search for Another Location

Airport or City:

Astronomy

Oct. 24, 2019 Rise Set
Actual Time 7:27 AM EDT 6:15 PM EDT
Civil Twilight 6:59 AM EDT 6:43 PM EDT
Nautical Twilight 6:27 AM EDT 7:14 PM EDT
Astronomical Twilight 5:56 AM EDT 7:46 PM EDT
Moon 2:55 AM EDT (10/24) 4:41 PM EDT (10/24)
Length of Visible Light 11h 43m
Length of Day
10h 48m
Waning Crescent, 17% of the Moon is Illuminated
Oct 24
Waning Crescent
Oct 27
New
Nov 4
First Quarter
Nov 12
Full
Nov 19
Last Quarter

Hourly Weather History & Observations

Time (EDT) Temp. Windchill Dew Point Humidity Pressure Visibility Wind Dir Wind Speed Gust Speed Precip Events Conditions
12:53 AM 36.0 °F - 33.1 °F 89% 30.23 in 10.0 mi Calm Calm - N/A   Clear
1:53 AM 35.1 °F - 32.0 °F 89% 30.23 in 10.0 mi Calm Calm - N/A   Clear
2:53 AM 35.1 °F - 32.0 °F 89% 30.25 in 10.0 mi Calm Calm - N/A   Clear
3:53 AM 34.0 °F - 30.9 °F 89% 30.25 in 10.0 mi Calm Calm - N/A   Clear
4:53 AM 33.1 °F 30.0 °F 30.0 °F 89% 30.28 in 10.0 mi West 3.5 mph - N/A   Clear
5:53 AM 33.1 °F - 30.9 °F 92% 30.31 in 10.0 mi Calm Calm - N/A   Clear
6:53 AM 34.0 °F - 30.9 °F 89% 30.30 in 10.0 mi Calm Calm - N/A   Clear
7:53 AM 34.0 °F - 30.9 °F 89% 30.34 in 10.0 mi Calm Calm - N/A   Clear
8:53 AM 42.1 °F - 37.0 °F 82% 30.35 in 10.0 mi Calm Calm - N/A   Clear
9:04 AM 43.0 °F - 37.9 °F 82% 30.33 in 10.0 mi Calm Calm - N/A   Partly Cloudy
9:53 AM 50.0 °F - 39.0 °F 66% 30.35 in 10.0 mi Calm Calm - N/A   Clear
10:53 AM 59.0 °F - 37.9 °F 46% 30.35 in 10.0 mi SSE 5.8 mph - N/A   Clear
11:53 AM 62.1 °F - 36.0 °F 38% 30.33 in 10.0 mi South 3.5 mph - N/A   Clear
12:53 PM 66.0 °F - 33.1 °F 29% 30.31 in 10.0 mi South 8.1 mph - N/A   Clear
1:53 PM 66.9 °F - 33.1 °F 28% 30.29 in 10.0 mi North - - N/A   Clear
2:53 PM 68.0 °F - 34.0 °F 28% 30.28 in 10.0 mi SW 8.1 mph - N/A   Clear
3:53 PM 68.0 °F - 35.1 °F 30% 30.27 in 10.0 mi Variable 4.6 mph - N/A   Clear
4:53 PM 66.9 °F - 35.1 °F 31% 30.27 in 10.0 mi SSW 5.8 mph - N/A   Clear
5:53 PM 62.1 °F - 37.0 °F 39% 30.27 in 10.0 mi Calm Calm - N/A   Clear
6:53 PM 48.9 °F - 39.0 °F 69% 30.29 in 10.0 mi Calm Calm - N/A   Clear
7:53 PM 46.9 °F - 37.9 °F 71% 30.30 in 10.0 mi Calm Calm - N/A   Clear
8:53 PM 53.1 °F - 39.0 °F 59% 30.29 in 10.0 mi Calm Calm - N/A   Clear
9:53 PM 54.0 °F - 41.0 °F 62% 30.31 in 10.0 mi South 4.6 mph - N/A   Clear
10:53 PM 53.1 °F - 42.1 °F 66% 30.31 in 10.0 mi SSW 4.6 mph - N/A   Clear
11:53 PM 42.1 °F - 37.9 °F 85% 30.31 in 10.0 mi Calm Calm - N/A   Clear